Location: Izdebno
(52.6670°N, 16.2170°E)
Time: 10:17:43
(UTC+01:00)

Transit 2A - Pass Details

Date: 03 February 2023
Orbit: 591 x 964 km, 66.7° (Epoch: 21 March)

Event Time Altitude Azimuth Distance (km) Brightness Sun altitude
Rises 19:07:40 0° 255° (WSW) 3,101 10.5 -21.9°
Reaches altitude 10° 19:10:07 10° 265° (W) 2,244 9.5 -22.2°
Maximum altitude 19:14:47 33° 330° (NNW) 1,301 7.4 -22.9°
Enters shadow 19:18:13 18° 23° (NNE) 1,936 7.9 -23.5°
Drops below altitude 10° 19:19:56 10° 34° (NNE) 2,483 - -23.7°
Sets 19:22:47 0° 43° (NE) 3,483 - -24.1°
